sat.trackr.live / text

‹ back to catalog

HULIANWANG DIGUI-100

NORAD 66416 · 2025-258E

PAYLOAD ACTIVE UNKNOWN

§ Identity

Operator
Country
PRC
Launch date
2025-11-10
Launch site
WSC
Launch vehicle
Mass (kg)
RCS (m²)

External: N2YO · Heavens-Above · Gunter

§ Orbital elements

Epoch: 2026-09-20T20:24:54.356832Z

Period
108.33 min
Inclination
50.0061°
Eccentricity
0.0000170
Mean motion
13.29327237 rev/d
Perigee alt
1,149.2 km
Apogee alt
1,149.4 km
Semi-major
7,527.4 km
B*
7.9727e-5
RAAN
312.7061°
Arg perigee
155.0403°
Mean anomaly
205.0477°
Rev number
4,246

§ Raw data

HULIANWANG DIGUI-1001 66416U 25258E   26263.85062913 -.00000087  00000+0  79727-4 0  99992 66416  50.0061 312.7061 0000170 155.0403 205.0477 13.29327237 42463

JSON: /api/v1/satellites/66416 · /tle

For live sub-satellite position, see the globe view (requires WebGL).

§ Visibility from observer

Set your observer location to see the next 7 days of passes ≥ 10°. The values pass through the URL so the page stays shareable.

No JS? Fill the form by hand. The geolocation button needs JavaScript.